User: anonymous
Location: *
(90.0000°N, 180.0000°W)
Time: 06:12:48
(UTC+02:00)
Language:

Cosmos 1825 - Orbit

View from above orbital plane
View from above orbital plane
View from above satellite
View from above satellite

Ground track
Ground track

The orbit data is extracted from the following two-line orbital elements,

1 17566U 87024A   14264.10500586  .00004193  00000-0  23652-3 0  1033
2 17566 082.5099 198.7044 0006586 087.4748 041.4329 15.12900220502255
Epoch (UTC): 21 September 2014 02:31:12
Eccentricity: 0.0006586
inclination: 82.5099°
perigee height: 523 km
apogee height: 532 km
right ascension of ascending node: 198.7044°
argument of perigee: 87.4748°
revolutions per day: 15.12900220
mean anomaly at epoch: 41.4329°
orbit number at epoch: 50225

The dashed part of the orbit path shows where the satellite is in the earth's shadow,  

DLR